Location: Capelle
(50.3413°N, 1.9974°E)
Time: 09:40:10
(UTC+00:00)

Meteor 1-28 Rocket - Pass Details

Date: 12 January 2026
Orbit: 427 x 437 km, 97.6° (Epoch: 19 February)

Event Time Altitude Azimuth Distance (km) Brightness Sun altitude
Rises 16:55:11 0° 15° (NNE) 2,409 6.2 -6.7°
Reaches altitude 10° 16:57:13 10° 18° (NNE) 1,535 5.2 -7.0°
Maximum altitude 17:00:29 70° 102° (ESE) 461 2.8 -7.4°
Drops below altitude 10° 17:03:44 10° 187° (S) 1,520 6.0 -7.9°
Sets 17:05:44 0° 190° (S) 2,381 7.1 -8.2°
